Погода в Янске-Лазне

Чехия     50°37′47″N   15°47′12″E
темп.,
°C
ветер,
м/с
пор.,
м/с
влажн.,
%
обл.,
%
осадки,
мм/ч
давл.,
гПа
погр.,
м
13 мая, чт
чт1323:00+11сз2499100 11.0 1005222
02:00+10ссз2499100 11.2 1004219
05:00+9сз2499100 0.1 1003224
08:00+9сз2599100 0.4 1002299
11:00+8сз3698100 0.9 1002456
14:00+8сз2598100 1.3 1002381
17:00+8сз2498100 0.4 1002380
20:00+7сз2598100 0.8 1003406
14 мая, пт
пт1423:00+7сз3699100 0.6 1003368
02:00+7сз2698100 1.1 1003470
05:00+6зсз2599100 0.1 1004487
08:00+6зсз2699100 1.2 1005531
11:00+6зсз3895100 0.8 1007743
14:00+10зсз4772100 0.9 10071182
17:00+11зсз366686 0.1 10061250
20:00+8сз118593 0.1 100814
15 мая, сб
сб1523:00+5зюз1193100 0.0 101014
02:00+6зюз2293100 0.0 101018
05:00+5зюз229423 0.0 101017
08:00+11юз12736 0.0 1009541
11:00+13юз236692 0.8 10081204
14:00+14юз2352100 1.3 10071656
17:00+13юз335497 0.1 10061476
20:00+8ююв1193100 1.3 100741
16 мая, вс
вс1623:00+6зюз1195100 0.4 100719
02:00+5зсз119490 0.4 100710
05:00+6ююз1197100 0.3 100658
08:00+7зюз1295100 0.6 1007272
11:00+10зюз2364100 0.1 10061295
14:00+13юз2355100 0.3 10051715
17:00+12юз346328 0.4 10041304
20:00+8ююз229043 1.0 100540
17 мая, пн
пн1723:00+6юз229425 0.1 100627
02:00+6юз229645 0.1 100636
05:00+4ююз2399100 0.0 100766
08:00+7юз2489100 0.0 1007330
11:00+11юз3564100 0.0 10061106
14:00+12юз236539 0.6 10061177
17:00+10зюз2473100 0.8 1006944
20:00+8зюз2283100 0.9 1007120